Miscellaneous Local Product
Issued by NWS Hastings, NE

Home | Current Version | Previous Version | Graphics & Text | Print | Product List | Glossary On
Versions: 1 2 3 4 5 6 7 8 9 10 11 12 13 14 15 16 17 18 19 20 21 22 23 24 25 26 27 28 29 30 31 32 33 34 35 36 37 38 39 40 41 42 43 44 45 46 47 48 49 50
729
AXUS43 KGID 281002
MISGRI

GID CWA HOURLY WEATHER ROUNDUP
NATIONAL WEATHER SERVICE HASTINGS NE
500 AM CDT THU APR 28 2016

NOTE: "FAIR" INDICATES FEW OR NO CLOUDS BELOW 12,000 FEET WITH NO
SIGNIFICANT WEATHER AND/OR OBSTRUCTIONS TO VISIBILITY.

...SOUTH CENTRAL NEBRASKA...

CITY           SKY/WX    TMP DP  RH WIND       PRES   REMARKS
GRAND ISLAND   CLOUDY    40  37  89 NW20G29   29.82R WCI  30
HASTINGS       CLOUDY    38  35  89 NW20      29.83R WCI  28
KEARNEY        CLOUDY    37  34  87 NW15      29.85R WCI  28
ORD            CLOUDY    39  38  96 NW15      29.82R WCI  31
YORK           CLOUDY    43  41  93 NW21      29.79R
AURORA         CLOUDY    41  40  97 NW20      29.80R
LEXINGTON      MOCLDY    35  32  88 NW10      29.89R WCI  27
HOLDREGE       PTCLDY    35  32  88 W10       29.87R WCI  27
HEBRON         CLOUDY    42  38  86 NW17      29.81R

...NEBRASKA PANHANDLE...

CITY           SKY/WX    TMP DP  RH WIND       PRES   REMARKS
CHADRON        CLOUDY    33  30  88 N6        29.96R WCI  28
ALLIANCE       MOCLDY    30  27  88 NW13      29.91R WCI  20
SCOTTSBLUFF    CLOUDY    33  28  81 CALM      29.95R
SIDNEY         CLEAR     27  24  89 NW10      29.94R WCI  17

...WESTERN AND NORTH CENTRAL NEBRASKA...

CITY           SKY/WX    TMP DP  RH WIND       PRES   REMARKS
VALENTINE      CLOUDY    33  32  96 NW13      29.90R FOG     WCI  24
AINSWORTH      CLOUDY    35  35  99 NW16      29.87R FOG     WCI  25
ONEILL         CLOUDY    41  39  95 N12G17    29.83R FOG
BROKEN BOW     CLOUDY    35  33  92 NW18      29.85R WCI  24
IMPERIAL       CLEAR     32  28  85 NW15      29.91R WCI  22
NORTH PLATTE   CLEAR     31  29  92 NW9       29.90R WCI  23
MCCOOK         CLEAR     33  29  85 W12       29.91R WCI  24

...EASTERN NEBRASKA...

CITY           SKY/WX    TMP DP  RH WIND       PRES   REMARKS
NORFOLK        LGT RAIN  42  40  92 NW14      29.77R FOG
SO SIOUX CITY  LGT RAIN  45  41  86 NE10      29.74R
TEKAMAH        LGT RAIN  46  44  93 N13       29.72R FOG
COLUMBUS       CLOUDY    45  36  70 NW14G25   29.77R
ALBION         CLOUDY    42  40  94 N9        29.80R FOG
OMAHA EPPLEY   DRIZZLE   46  45  96 SE3       29.70R FOG
OFFUTT AFB     DRIZZLE   47  47 100 W9        29.70R
MILLARD        DRIZZLE   47  46  93 W7        29.69R
LINCOLN        CLOUDY    49  43  80 NW16      29.76R
NEBRASKA CITY  CLOUDY    48  48 100 NW14G21   29.70R
BEATRICE       CLOUDY    45  43  95 W16G22    29.75R
FALLS CITY     CLOUDY    48  44  86 W16       29.72R

...NORTHERN KANSAS...

CITY           SKY/WX    TMP DP  RH WIND       PRES   REMARKS
GOODLAND       MOCLDY    37  33  85 NW10      29.92R WCI  30
HILL CITY      CLOUDY    38  32  79 NW9       29.91R WCI  31
NORTON         SUNNY     36  28  75 W10       29.88  WCI  28
PHILLIPSBURG   CLEAR     37  32  81 NW12G18   29.88S WCI  30
SMITH CENTER   CLEAR     36  32  87 W13       29.88R WCI  27
BELOIT         CLEAR     37  32  81 W10       29.85R WCI  30
HAYS           PTCLDY    41  27  56 NW12      29.90R
RUSSELL        MOCLDY    41  33  73 NW15      29.88R
CONCORDIA      CLEAR     39  33  79 NW15      29.82R WCI  31
SALINA         CLEAR     42  36  79 W12       29.87R
TOPEKA         CLOUDY    47  38  71 W14G21    29.78R



USA.gov is the U.S. government's official web portal to all federal, state and local government web resources and services.